This is the latest recevied weather packets stored in our database for station/object KB1QVF. If no packets are shown the sender has not sent any weather packets the latest 10 day(s).
| Time | Temp. | Humidity | Pressure | Rain* | Wind** | Luminosity | Snow |
|---|---|---|---|---|---|---|---|
| 1778140809 | 10° C | 96% | 1009.3 hPa | 1.78 mm | - | 0 W/m² | - |
| 1778140504 | 10° C | 96% | 1009.1 hPa | 0 mm | - | 0 W/m² | - |
| 1778140201 | 10° C | 96% | 1009.5 hPa | 1.27 mm | - | 0 W/m² | - |
| 1778139897 | 10° C | 96% | 1009.5 hPa | 3.05 mm | - | 0 W/m² | - |
| 1778139596 | 10° C | 96% | 1009.8 hPa | 1.27 mm | - | 0 W/m² | - |
| 1778139291 | 10° C | 95% | 1009.8 hPa | 1.78 mm | - | 0 W/m² | - |
| 1778138988 | 10.56° C | 95% | 1009.8 hPa | 6.1 mm | - | 0 W/m² | - |
| 1778138686 | 10.56° C | 95% | 1009.4 hPa | 8.89 mm | - | 0 W/m² | - |
| 1778138383 | 10.56° C | 95% | 1009.4 hPa | 4.83 mm | - | 0 W/m² | - |
| 1778138080 | 10.56° C | 94% | 1009.6 hPa | 1.78 mm | - | 0 W/m² | - |
| 1778137777 | 10.56° C | 94% | 1009.1 hPa | 1.78 mm | - | 0 W/m² | - |
| 1778137474 | 10.56° C | 95% | 1009.1 hPa | 0 mm | - | 0 W/m² | - |
| 1778137171 | 10.56° C | 94% | 1008.6 hPa | 0 mm | - | 0 W/m² | - |
| 1778136867 | 10.56° C | 94% | 1008.5 hPa | 0 mm | - | 0 W/m² | - |
| 1778136565 | 10.56° C | 94% | 1008.5 hPa | 0 mm | - | 0 W/m² | - |
| 1778136263 | 10.56° C | 94% | 1008.4 hPa | 0 mm | - | 0 W/m² | - |
| 1778135961 | 10.56° C | 94% | 1008.7 hPa | 0 mm | - | 0 W/m² | - |
| 1778135657 | 11.11° C | 94% | 1008.7 hPa | 0 mm | - | 0 W/m² | - |
| 1778135354 | 11.11° C | 94% | 1008.8 hPa | 0 mm | - | 0 W/m² | - |
| 1778135051 | 11.11° C | 94% | 1008.9 hPa | 0 mm | - | 0 W/m² | - |
| 1778134749 | 11.11° C | 94% | 1008.7 hPa | 0 mm | - | 0 W/m² | - |
| 1778134447 | 11.11° C | 94% | 1008.9 hPa | 0 mm | - | 0 W/m² | - |
| 1778134145 | 11.11° C | 94% | 1008.7 hPa | 0 mm | - | 0 W/m² | - |
| 1778133841 | 11.67° C | 94% | 1008.9 hPa | 0 mm | - | 0 W/m² | - |
| 1778133538 | 11.67° C | 95% | 1008.9 hPa | 0 mm | - | 0 W/m² | - |
* Rain latest hour (hover to see other rain measurements)
** Current wind speed in m/s (hover to see current wind gust speed)